Location: Staunton
(38.1490°N, 79.0720°W)
Time: 23:54:06
(UTC-05:00)

ISS - Pass Details

Date: 11 December 2019
Orbit: 411 x 421 km, 51.6° (Epoch: 15 December)

Event Time Altitude Azimuth Distance (km) Brightness Sun altitude
Rises 17:49:04 0° 307° (NW) 2,355 0.5 -10.2°
Reaches altitude 10° 17:51:10 10° 304° (NW) 1,491 -0.5 -10.6°
Maximum altitude 17:54:29 66° 223° (SW) 456 -3.4 -11.2°
Drops below altitude 10° 17:57:49 10° 139° (SE) 1,488 -1.2 -11.8°
Sets 17:59:55 0° 137° (SE) 2,350 -0.2 -12.2°
